DW5679 Weather Reports


Display with metric or nautical units.
time (UTC)temp
F
wind
direction
speed
MPH
gust
MPH
rain 1hr
in
rain 24hr
in
rain mn
in
humidity
%
barometer
mb
20260507114515 48 19 0.0 1.0 0.00 0.51 0.00 97 1017.9
20260507114509 48 349 0.0 1.0 0.00 0.66 0.00 97 1018.9
20260507113009 48 28 0.0 1.0 0.00 0.51 0.00 97 1017.8
20260507111510 48 8 0.0 0.0 0.00 0.66 0.00 98 1018.8
20260507110011 48 38 0.0 1.0 0.00 0.66 0.00 97 1017.5
20260507110008 48 8 0.0 1.0 0.00 0.66 0.00 98 1018.4
20260507104527 48 49 0.0 1.0 0.00 0.71 0.00 97 1017.5
20260507104512 48 18 0.0 1.0 0.00 0.74 0.00 98 1018.4
20260507103024 48 48 0.0 0.0 0.00 0.71 0.00 97 1017.2
20260507103021 48 18 0.0 0.0 0.00 0.74 0.00 98 1018.2
20260507101554 48 24 0.0 0.0 0.00 0.74 0.00 97 1018.2
20260507101527 48 54 0.0 0.0 0.00 0.72 0.00 97 1017.2
20260507100051 48 24 0.0 0.0 0.00 0.74 0.00 97 1017.9
20260507100026 48 21 0.0 0.0 0.00 0.74 0.00 97 1016.8
20260507094554 48 351 0.0 0.0 0.00 0.74 0.00 97 1018.0
20260507094508 48 20 0.0 0.0 0.00 0.74 0.00 96 1017.1
20260507093047 49 351 0.0 0.0 0.00 0.74 0.00 97 1017.4
20260507093031 49 21 0.0 0.0 0.00 0.74 0.00 96 1016.4
20260507091546 50 21 0.0 0.0 0.00 0.74 0.00 97 1016.7
20260507090043 50 351 0.0 1.0 0.00 0.74 0.00 97 1017.9
20260507090022 50 20 0.0 1.0 0.00 0.74 0.00 97 1016.8
20260507084544 51 20 0.0 1.0 0.00 1.13 0.00 98 1017.9
20260507084525 51 50 0.0 1.0 0.00 0.75 0.00 97 1016.9
20260507083047 51 27 0.0 1.0 0.00 1.13 0.00 98 1017.9
20260507083019 51 57 0.0 1.0 0.00 0.75 0.00 97 1016.8
20260507081540 50 349 0.0 0.0 0.00 1.13 0.00 97 1017.8
20260507081510 50 19 0.0 0.0 0.00 0.81 0.00 97 1016.8
20260507080048 51 349 0.0 0.0 0.00 1.13 0.00 97 1017.5
20260507080025 51 18 0.0 0.0 0.00 1.14 0.00 97 1016.5
20260507074543 51 349 0.0 0.0 0.00 1.15 0.00 97 1017.6
20260507074529 51 19 0.0 0.0 0.00 1.15 0.00 97 1016.5
20260507073035 52 349 0.0 0.0 0.00 1.15 0.00 97 1017.7
20260507073022 52 19 0.0 0.0 0.00 1.16 0.00 97 1016.7
20260507071552 52 349 0.0 1.0 0.00 1.15 0.00 97 1017.7
20260507071518 52 19 0.0 1.0 0.00 1.16 0.00 97 1016.6
20260507070035 52 17 0.0 0.0 0.00 1.15 0.00 96 1017.7
20260507070016 52 48 0.0 0.0 0.00 1.16 0.00 96 1016.7
20260507064530 52 17 0.0 0.0 0.00 2.02 0.00 96 1017.7
20260507064516 52 47 0.0 0.0 0.00 1.16 0.00 95 1016.7
20260507063032 53 17 0.0 0.0 0.00 2.02 0.00 95 1017.8
20260507063026 53 47 0.0 0.0 0.00 1.16 0.00 95 1016.7
20260507061531 53 47 0.0 0.0 0.00 1.76 0.00 95 1016.7
20260507061528 53 17 0.0 0.0 0.00 2.02 0.00 96 1017.8
20260507060031 53 47 0.0 0.0 0.00 2.03 0.00 95 1017.0
20260507060027 53 17 0.0 0.0 0.00 2.02 0.00 96 1018.1
20260507054526 53 17 0.0 0.0 0.00 2.02 0.00 96 1018.1
20260507054524 53 47 0.0 0.0 0.00 2.03 0.00 96 1017.0
20260507053024 53 18 0.0 0.0 0.00 2.02 0.00 95 1018.0
20260507053019 53 47 0.0 0.0 0.00 2.03 0.00 95 1016.9
20260507051523 53 17 0.0 0.0 0.00 2.02 0.00 94 1017.9
20260507051518 53 47 0.0 0.0 0.00 2.03 0.00 94 1016.8
20260507050020 53 17 0.0 0.0 0.00 2.02 0.00 95 1018.1
20260507050011 53 47 0.0 0.0 0.00 2.03 0.00 95 1017.1
20260507044521 53 18 0.0 0.0 0.00 2.02 2.02 95 1017.8
20260507044506 53 47 0.0 0.0 0.00 2.03 2.03 94 1016.9
20260507043022 53 18 0.0 0.0 0.00 2.02 2.02 95 1018.0
20260507043004 53 47 0.0 0.0 0.00 2.03 2.03 95 1016.9
20260507041518 53 356 0.0 1.0 0.00 2.02 2.02 95 1017.8
20260507041506 53 26 0.0 1.0 0.00 2.03 2.03 94 1016.8
20260507040016 53 13 0.0 0.0 0.00 2.02 2.02 95 1017.9
20260507040007 53 43 0.0 0.0 0.00 2.03 2.03 95 1016.8
20260507034519 53 13 0.0 0.0 0.00 2.02 2.02 96 1017.5
20260507034508 53 43 0.0 0.0 0.00 2.03 2.03 95 1016.7
20260507033017 53 20 0.0 0.0 0.00 2.02 2.02 95 1017.5
20260507033009 53 50 0.0 0.0 0.00 2.03 2.03 95 1016.6
20260507031515 53 20 0.0 1.0 0.00 2.02 2.02 95 1017.3
20260507031508 53 50 0.0 1.0 0.00 2.03 2.03 94 1016.3
20260507030014 52 21 0.0 0.0 0.00 2.02 2.02 95 1017.2
20260507030012 52 51 0.0 0.0 0.00 2.03 2.03 94 1016.2
20260507024515 53 344 0.0 0.0 0.00 2.02 2.02 95 1017.1
20260507024508 53 14 0.0 0.0 0.00 2.03 2.03 94 1016.1
20260507023014 53 344 0.0 1.0 0.00 2.02 2.02 95 1016.9
20260507023007 53 14 0.0 1.0 0.00 2.03 2.03 95 1016.1
20260507021515 52 16 0.0 1.0 0.00 2.02 2.02 95 1016.7
20260507021508 52 46 0.0 1.0 0.00 2.03 2.03 95 1016.0
20260507020019 52 47 0.0 0.0 0.00 2.03 2.03 95 1016.0
20260507020012 52 17 0.0 0.0 0.00 2.02 2.02 95 1016.9
20260507014528 52 47 0.0 1.0 0.00 2.03 2.03 95 1015.4
20260507014512 52 17 0.0 1.0 0.00 2.02 2.02 95 1016.2
20260507013026 52 43 0.0 0.0 0.00 2.03 2.03 95 1015.7
20260507013011 52 14 0.0 0.0 0.00 2.02 2.02 95 1016.6
20260507011530 53 43 0.0 0.0 0.00 2.03 2.03 94 1015.1
20260507011518 53 13 0.0 0.0 0.00 2.02 2.02 95 1015.8
20260507010028 53 43 0.0 1.0 0.00 2.03 2.03 94 1014.8
20260507010010 53 13 0.0 0.0 0.00 2.02 2.02 95 1015.6
20260507004522 53 62 0.0 1.0 0.00 2.03 2.03 94 1014.6
20260507004512 53 32 0.0 1.0 0.00 2.02 2.02 94 1015.4
20260507003019 53 21 0.0 3.0 0.00 2.03 2.03 93 1014.5
20260507003016 53 351 0.0 3.0 0.00 2.02 2.02 94 1015.4
20260507001529 53 80 0.0 0.0 0.00 2.03 2.03 94 1015.2
20260507001509 53 34 0.0 0.0 0.00 2.02 2.02 94 1016.1
20260507000028 53 73 0.0 1.0 0.00 2.03 2.03 93 1015.3
20260507000018 53 44 0.0 1.0 0.00 2.02 2.02 94 1016.1
20260506234606 53 27 0.0 0.0 0.00 2.02 2.02 94 1016.2
20260506234527 53 57 0.0 0.0 0.00 2.03 2.03 93 1015.4
20260506233025 53 57 0.0 0.0 0.00 2.03 2.03 92 1015.5
20260506233013 53 27 0.0 0.0 0.00 2.02 2.02 93 1016.3
20260506231525 53 4 0.0 0.0 0.00 2.02 2.02 92 1016.3
20260506230028 53 3 0.0 2.0 0.00 2.02 2.02 93 1016.0
20260506230003 53 34 0.0 2.0 0.00 2.03 2.03 92 1015.1
20260506224529 53 21 0.0 1.0 0.00 2.02 2.02 93 1016.0
20260506224503 53 51 0.0 1.0 0.00 2.03 2.03 92 1015.1
20260506223035 53 6 0.0 1.0 0.00 2.02 2.02 93 1015.8
20260506223014 53 35 0.0 1.0 0.00 2.03 2.03 92 1015.0
20260506221611 53 38 0.0 0.0 0.00 2.02 2.02 94 1015.5
20260506221512 53 68 0.0 0.0 0.00 2.03 2.03 94 1014.7
20260506220027 52 37 0.0 1.0 0.00 2.02 2.02 93 1014.4
20260506220009 52 71 0.0 1.0 0.00 2.03 2.03 93 1013.8
20260506214526 52 55 0.0 0.0 0.00 2.02 2.02 93 1015.0
20260506214505 52 85 0.0 0.0 0.00 2.03 2.03 93 1014.2
20260506213025 52 15 0.0 2.0 0.00 2.02 2.02 93 1015.0
20260506213011 52 45 0.0 2.0 0.00 2.03 2.03 93 1014.3
20260506211524 52 12 0.0 3.0 0.00 2.02 2.02 93 1015.2
20260506211518 52 54 0.0 3.0 0.00 2.03 2.03 93 1014.5
20260506210024 52 66 0.0 6.0 0.00 2.02 2.02 93 1014.8
20260506210020 52 100 1.0 6.0 0.00 2.03 2.03 92 1014.2
20260506204524 52 63 0.0 4.0 0.00 2.02 2.02 95 1015.2
20260506204518 52 88 0.0 4.0 0.00 2.03 2.03 95 1014.5
20260506203030 51 30 1.0 4.0 0.00 2.02 2.02 95 1015.1
20260506203010 51 42 1.0 6.0 0.00 2.03 2.03 95 1014.4
20260506201523 51 10 0.0 2.0 0.00 2.02 2.02 96 1015.0
20260506201508 51 345 0.0 2.0 0.00 2.03 2.03 96 1014.3
20260506200018 51 318 0.0 2.0 0.01 2.02 2.02 96 1015.3
20260506200005 51 121 0.0 2.0 0.01 2.03 2.03 96 1014.6
20260506194524 51 71 0.0 3.0 0.03 2.03 2.03 96 1014.7
20260506193028 51 29 0.0 2.0 0.06 2.02 2.02 97 1016.1
20260506193017 51 59 0.0 2.0 0.06 2.03 2.03 96 1015.4
20260506191519 50 42 0.0 1.0 0.08 2.03 2.03 96 1015.9
20260506190036 50 18 0.0 1.0 0.09 2.02 2.02 96 1017.2
20260506190014 50 21 0.0 1.0 0.09 2.02 2.02 96 1016.4
20260506184605 49 331 0.0 3.0 0.09 2.02 2.00 96 1016.1
20260506184510 49 1 0.0 3.0 0.08 2.00 2.00 95 1015.1
20260506183032 50 10 0.0 1.0 0.05 1.98 1.97 96 1016.5
20260506183008 50 35 0.0 1.0 0.05 1.98 1.97 96 1015.8
20260506181605 49 10 0.0 4.0 0.04 1.96 1.95 96 1016.1
20260506181523 49 50 0.0 1.0 0.04 1.96 1.95 96 1016.0
20260506180021 49 40 0.0 1.0 0.22 1.94 1.93 95 1017.2
20260506174522 49 44 0.0 1.0 0.21 1.93 1.92 96 1017.6
20260506174514 49 14 0.0 0.0 0.21 1.94 1.92 96 1018.5
20260506173032 49 20 0.0 1.0 0.27 1.94 1.92 96 1016.9
20260506173017 49 50 0.0 1.0 0.27 1.94 1.92 96 1016.1
20260506171612 49 3 0.0 2.0 0.26 1.93 1.91 95 1017.1
20260506171510 49 26 0.0 2.0 0.26 1.93 1.91 95 1016.4
20260506170015 49 351 0.0 3.0 0.06 1.73 1.71 95 1017.4
20260506170011 49 2 1.0 3.0 0.06 1.73 1.71 95 1016.7
20260506164527 49 57 0.0 3.0 0.06 1.74 1.71 94 1015.6
20260506164504 49 28 0.0 3.0 0.06 1.75 1.71 94 1016.2
20260506163037 50 90 0.0 3.0 0.00 1.68 1.65 93 1016.3
20260506163004 50 100 0.0 3.0 0.00 1.69 1.65 93 1016.9
20260506161520 50 19 0.0 2.0 0.00 1.69 1.65 94 1015.8
20260506161502 50 349 0.0 2.0 0.00 1.69 1.65 94 1016.4
20260506160108 50 61 0.0 4.0 0.01 1.69 1.65 94 1016.2
20260506160017 50 27 0.0 4.0 0.01 1.69 1.65 94 1015.7
20260506154518 49 65 0.0 3.0 0.01 1.70 1.65 95 1015.7
20260506154516 49 74 1.0 3.0 0.01 1.69 1.65 94 1015.2
20260506153137 49 357 0.0 3.0 0.01 1.70 1.65 95 1016.1
20260506153026 49 31 0.0 3.0 0.01 1.69 1.65 95 1015.5
20260506151545 49 360 0.0 2.0 0.01 1.70 1.65 95 1016.1
20260506151525 49 30 0.0 2.0 0.01 1.69 1.65 95 1015.6
20260506150045 49 6 0.0 2.0 0.00 1.69 1.64 95 1016.1
20260506150028 49 60 0.0 2.0 0.00 1.69 1.64 95 1015.6
20260506144542 48 25 0.0 4.0 0.00 1.70 1.64 95 1016.0
20260506144524 48 55 1.0 4.0 0.00 1.69 1.64 95 1015.4
20260506143041 48 36 0.0 5.0 0.00 1.70 1.64 96 1016.1
20260506143021 48 81 1.0 5.0 0.00 1.69 1.64 96 1015.5
20260506141540 48 45 0.0 4.0 0.00 1.70 1.64 96 1015.8
20260506141515 48 76 0.0 4.0 0.00 1.69 1.64 96 1015.1
20260506140038 48 3 1.0 3.0 0.00 1.70 1.64 97 1015.2
20260506140034 48 98 1.0 3.0 0.00 1.70 1.64 96 1014.7
20260506134554 48 318 0.0 5.0 0.00 1.72 1.64 97 1015.2
20260506134525 48 45 0.0 5.0 0.00 1.70 1.64 96 1014.8
20260506133024 49 85 0.0 4.0 0.00 1.70 1.64 96 1015.1
20260506133022 49 68 0.0 4.0 0.00 1.72 1.64 96 1015.6
20260506131525 49 85 1.0 6.0 0.00 1.71 1.64 96 1014.8
20260506131510 49 68 0.0 6.0 0.00 1.72 1.64 96 1015.2
20260506130021 49 113 1.0 4.0 0.01 1.72 1.64 96 1014.7
20260506124612 49 62 0.0 3.0 0.12 1.72 1.64 97 1015.0
20260506124516 49 72 0.0 3.0 0.12 1.72 1.64 96 1014.4
20260506123030 48 81 0.0 4.0 0.12 1.72 1.64 96 1013.8
20260506123003 48 51 0.0 4.0 0.12 1.72 1.64 97 1014.3
20260506121605 49 60 0.0 2.0 0.21 1.72 1.64 97 1014.0
20260506121527 49 91 0.0 2.0 0.22 1.72 1.64 96 1013.5
20260506120032 49 43 1.0 4.0 0.26 1.71 1.63 96 1013.1
20260506120010 49 16 0.0 4.0 0.25 1.70 1.62 97 1013.5